Temperature
17 17 17 17 17 17 17 17 17 17 17 17 17 17 17 17 17 17 17 17 17 17 17 17 17 17 17 17 17 17 17 17 17 18 18 18 18 18 18 18 18 18 18
17 17 17 17 17 17 17 17 17 17 17 17 17 17 17 17 17 17 17 17 17 17 17 17 17 17 17 17 17 17 17 17 17 17 17 17 18 17 17 17 17 17 17
17 17 17 17 17 17 17 17 17 17 17 17 17 17 17 17 17 17 17 17 17 17 17 17 17 17 17 17 17 17 17 17 17 17 17 17 17 17 17 17 17 17 17
17 17 17 17 17 17 17 17 17 17 17 17 17 17 17 17 17 17 17 17 17 17 17 17 17 17 17 17 17 17 17 17 17 17 17 17 17 17 17 17 17 17 17
17 17 17 17 17 17 17 17 17 17 17 17 17 17 17 17 17 17 17 17 17 17 17 17 17 17 17 17 17 17 17 17 17 17 17 17 17 17 17 17 17 17 17
17 17 17 17 17 17 17 17 17 17 17 17 17 17 17 17 17 17 17 17 17 17 17 17 16 17 17 17 17 17 17 17 17 17 17 17 17 17 17 17 17 17 17
17 17 17 17 17 17 17 17 17 17 17 17 17 17 17 17 17 17 17 16 16 16 16 16 16 16 16 16 17 17 16 16 17 17 17 17 17 17 16 16 16 16 17
17 17 17 17 17 17 17 17 17 17 17 16 16 16 16 16 16 16 16 16 16 16 16 16 16 16 16 16 16 16 16 16 16 16 16 16 16 16 16 16 16 16 16
17 17 17 16 16 16 16 16 16 16 16 16 16 16 16 16 16 16 16 16 16 16 16 16 16 16 16 16 16 16 16 16 16 16 16 16 16 16 16 16 16 16 16
17 16 16 16 16 16 16 16 16 16 16 16 16 16 16 16 16 16 16 16 16 16 16 16 16 16 16 16 16 16 16 16 16 16 16 16 16 16 16 16 16 16 16
16 16 16 16 16 16 16 16 16 16 16 16 16 16 16 16 16 16 16 16 16 16 16 16 16 16 16 16 16 16 16 16 16 16 16 16 16 16 16 16 16 16 16
16 16 16 16 16 16 16 16 16 16 16 16 16 16 16 16 16 16 16 16 16 16 16 16 16 16 16 16 16 16 15 15 16 16 15 15 15 15 15 15 15 15 15
17 16 16 16 16 16 16 16 16 16 16 16 16 16 16 16 16 16 16 16 16 16 16 15 15 15 15 15 15 15 15 15 15 15 15 15 15 15 15 15 15 15 15
17 16 16 16 16 16 16 16 16 16 16 16 16 16 16 16 16 16 15 15 15 15 15 15 15 15 15 15 15 15 15 15 15 15 15 15 15 15 15 15 15 15 15
17 17 16 16 16 16 16 16 16 16 16 16 16 16 16 16 16 16 15 15 15 15 15 15 15 15 15 15 15 15 15 15 15 15 15 15 15 14 14 15 15 15 15
17 17 16 16 16 16 16 16 16 16 16 16 16 16 15 16 15 15 15 15 15 15 15 15 15 15 15 15 15 15 15 14 14 14 14 14 14 14 14 14 14 14 14
17 17 16 16 16 16 16 16 16 16 16 16 16 15 15 15 15 15 15 15 15 15 15 15 14 15 15 15 15 15 14 14 14 14 14 14 14 14 14 14 14 14 14
17 17 17 16 16 16 16 16 16 16 16 15 15 15 15 15 15 15 15 15 15 15 14 14 14 14 14 14 14 14 14 14 14 14 14 14 14 14 14 14 14 14 14
17 17 17 16 16 16 16 16 16 16 15 15 15 15 15 15 15 15 15 15 15 14 14 14 14 14 14 14 14 14 14 14 14 14 14 14 14 14 14 14 14 14 14
17 17 17 16 16 16 16 16 15 15 15 15 15 15 15 15 15 15 15 15 14 14 14 14 14 14 14 14 14 14 14 14 14 14 14 14 14 14 14 14 14 14 13
17 17 16 16 16 16 16 15 15 15 15 15 15 15 15 15 15 15 15 14 14 14 14 14 14 14 14 13 13 13 13 14 14 14 14 14 14 14 14 13 13 13 13
17 17 16 16 16 16 16 15 15 15 15 15 15 15 14 14 14 14 14 14 14 14 14 14 14 13 13 13 13 13 13 13 13 13 13 13 14 14 13 13 13 13 13
17 17 16 16 16 16 16 15 15 15 15 15 15 14 14 14 14 14 14 14 14 14 14 14 13 13 13 13 13 13 13 13 13 13 13 13 13 13 13 13 13 13 13
17 17 16 16 16 16 15 15 15 15 15 15 14 14 14 14 14 14 14 13 13 13 13 13 13 13 13 13 13 13 13 13 13 13 13 13 13 13 13 13 13 13 13
17 16 16 16 16 15 15 15 15 15 15 14 14 14 14 14 14 13 13 13 13 13 13 13 13 13 13 13 13 13 13 13 13 13 13 13 13 13 13 13 13 13 13
16 16 16 16 15 15 15 15 15 14 14 14 14 14 14 14 13 13 13 13 13 13 13 13 13 13 13 13 13 12 12 12 13 13 12 13 13 13 13 13 13 13 13
Wind_Speed
2 2 1 3 5 5 6 6 7 8 8 9 9 9 9 9 9 9 9 8 9 9 9 9 9 9 8 8 7 7 7 7 7 6 6 6 6 7 7 7 7 5 6
2 1 2 4 5 5 6 7 7 8 8 8 8 9 9 9 9 9 8 8 9 9 9 9 9 9 8 8 7 7 8 8 7 7 7 6 6 6 6 6 6 5 6
2 2 3 5 5 6 6 7 7 8 8 8 8 8 9 9 8 8 8 8 9 9 9 9 9 9 9 8 8 8 8 8 8 7 7 6 5 5 6 6 6 5 5
3 3 3 5 6 6 6 6 7 8 8 8 8 8 8 9 8 8 8 8 8 8 9 9 9 9 9 9 8 8 8 8 8 7 6 5 4 6 6 6 6 5 5
3 3 4 5 6 6 6 6 7 7 7 7 8 8 8 8 8 8 8 8 8 8 8 8 8 9 9 9 9 8 8 8 8 8 6 6 4 5 6 6 6 5 5
3 4 4 6 6 6 6 6 6 7 7 7 7 7 7 8 8 8 8 8 8 8 8 8 8 8 8 8 9 9 9 8 8 7 6 5 4 5 6 6 6 6 5
3 4 4 6 6 6 6 7 7 6 6 6 6 7 7 7 7 8 8 8 8 8 8 7 7 8 8 8 9 9 9 8 8 6 5 5 4 5 6 6 6 6 6
4 4 4 5 6 6 6 6 6 6 6 6 6 6 7 7 7 7 8 8 8 8 8 8 7 8 8 9 9 9 9 8 7 5 5 4 5 5 6 6 6 6 6
4 4 4 5 5 5 5 5 5 6 6 6 6 6 6 6 6 7 7 7 8 7 7 8 8 8 8 8 8 8 9 9 8 5 5 5 6 6 6 6 7 7 7
4 4 3 4 5 5 5 5 5 5 6 6 6 6 6 6 7 7 7 7 7 8 8 8 9 9 9 9 9 9 9 8 7 6 5 5 6 7 7 7 7 7 7
2 2 2 3 4 4 4 4 5 5 6 6 6 6 7 6 6 6 6 7 7 7 8 8 9 10 10 10 11 10 9 7 7 6 5 6 7 7 7 7 8 8 8
1 0 1 1 2 3 3 4 5 5 6 6 6 6 6 5 5 5 6 7 7 7 8 9 10 10 10 9 9 10 8 7 6 5 6 8 8 8 8 7 7 8 8
2 1 1 1 2 2 2 3 4 4 5 5 5 5 5 5 5 6 5 6 6 7 7 8 8 8 8 7 7 8 8 7 6 6 7 9 9 9 9 9 8 8 8
3 2 1 1 2 2 2 2 3 3 3 3 4 4 4 3 4 4 4 5 5 5 5 5 5 6 7 7 7 7 7 6 6 5 7 9 9 9 9 9 9 8 8
3 3 2 2 2 2 2 1 2 2 2 2 3 4 4 3 2 3 3 4 5 5 4 4 4 4 4 5 5 6 5 6 6 6 6 9 9 9 9 9 8 8 9
4 3 3 2 2 2 2 1 1 2 2 3 3 3 4 4 3 3 3 3 4 4 4 4 3 3 3 3 4 5 5 5 6 6 6 8 9 9 9 8 8 8 9
4 3 3 3 2 2 2 1 2 2 3 3 3 4 4 4 4 3 2 2 3 4 4 4 4 3 3 3 4 4 4 4 5 5 6 7 7 8 9 9 8 8 9
4 3 3 3 3 3 2 2 2 3 3 3 3 4 4 4 5 4 2 2 3 4 4 3 3 3 3 3 3 3 3 3 4 4 5 6 6 7 7 9 9 8 8
5 4 3 2 3 3 2 2 3 3 3 3 3 3 3 4 5 4 3 2 4 3 3 2 3 2 2 3 3 3 3 3 3 3 4 5 5 5 5 7 8 8 8
4 5 4 3 3 3 3 2 3 3 3 3 3 3 4 4 4 5 3 3 3 3 3 3 3 3 2 2 3 3 3 3 3 3 2 3 4 4 4 5 5 5 6
4 4 4 4 3 3 2 2 2 1 1 1 2 2 3 3 3 4 3 2 2 2 2 2 2 3 2 2 2 3 3 3 3 3 2 2 3 3 4 4 4 3 4
5 5 4 4 4 3 2 2 2 2 1 1 1 2 2 2 2 2 2 2 2 2 2 2 2 2 1 2 2 2 2 3 3 3 3 2 2 3 3 3 3 3 3
5 6 6 5 4 4 3 3 2 2 2 2 1 1 1 1 2 2 2 2 2 2 1 1 2 2 1 1 1 2 2 2 2 3 2 3 3 2 2 3 2 2 1
6 6 6 5 5 4 4 4 4 3 2 2 1 1 0 1 1 1 2 2 2 1 1 1 1 1 2 1 1 1 1 2 2 1 3 3 3 2 2 2 2 1 0
5 5 5 5 4 4 4 5 4 3 2 1 1 1 0 0 0 1 1 1 1 1 2 1 1 1 1 2 1 1 1 1 1 2 1 3 3 2 2 2 1 1 0
4 4 4 4 4 4 4 4 5 4 3 2 1 1 1 1 1 1 1 1 1 2 2 2 2 2 2 1 1 2 2 2 2 2 2 2 2 3 2 2 1 1 1
Wind_Direction
264 262 207 109 100 93 89 86 84 86 88 85 87 89 88 87 85 84 85 85 84 80 76 75 74 75 76 78 85 85 85 85 79 76 73 71 82 104 112 111 109 105 110
197 199 136 119 108 102 97 94 88 88 89 87 86 88 89 88 88 85 84 85 84 79 74 71 72 74 73 73 79 81 79 75 75 73 70 65 76 98 107 108 111 111 115
134 130 120 117 109 105 99 96 93 92 88 86 87 88 89 89 88 87 84 83 82 78 72 68 67 68 68 70 73 76 74 68 71 71 67 55 64 93 104 107 109 112 120
131 115 114 118 114 107 101 99 98 96 90 87 85 84 85 85 86 86 84 83 80 77 75 70 66 67 65 65 68 70 72 69 67 67 60 54 60 89 99 100 100 102 111
103 104 110 118 115 109 105 100 103 100 93 89 86 83 81 80 80 81 82 82 80 76 73 70 69 67 65 64 64 68 71 69 64 61 57 54 55 81 92 92 93 95 100
91 93 108 113 109 106 105 102 103 102 97 93 91 86 81 78 77 76 78 78 78 77 74 71 68 64 62 61 61 65 69 69 62 59 59 58 61 79 83 81 80 85 93
96 81 95 105 104 102 100 100 97 98 97 96 93 88 81 77 75 74 76 77 77 75 73 69 67 63 60 59 60 66 67 67 62 55 54 55 69 83 84 80 78 79 83
103 78 82 94 97 99 97 95 93 94 94 93 90 84 80 77 75 72 72 73 73 70 66 63 67 67 64 62 62 66 65 63 61 55 50 53 73 81 86 82 82 83 84
86 76 64 69 77 86 91 90 87 88 87 85 82 79 75 74 73 72 71 69 66 65 64 62 64 65 65 66 65 67 67 64 58 50 53 55 66 73 81 82 84 86 86
71 67 59 60 63 63 60 69 80 80 80 78 75 74 69 64 62 60 60 59 60 61 62 61 61 64 63 66 68 69 69 62 54 49 44 55 67 73 79 82 81 82 86
74 53 57 62 57 55 51 55 59 63 64 62 56 56 52 50 51 49 54 56 55 57 61 60 62 61 61 61 65 68 62 54 52 46 42 57 69 73 75 76 77 76 75
152 126 84 79 64 51 52 51 48 51 49 47 48 49 48 49 47 46 49 56 54 54 60 62 64 59 59 55 56 59 53 50 47 40 44 59 67 70 72 74 76 76 75
179 162 164 134 80 66 51 49 46 49 46 41 46 53 56 53 45 44 46 47 47 56 58 57 56 52 55 56 57 54 48 46 41 35 40 55 63 70 72 70 72 74 74
157 187 187 134 105 82 73 57 51 48 48 40 41 55 67 57 47 46 46 45 50 57 59 57 61 57 54 58 65 60 50 45 36 31 35 49 57 66 69 69 69 70 73
169 193 188 163 140 109 84 59 62 51 54 47 50 56 74 77 72 60 54 53 54 59 62 62 64 64 56 57 63 66 56 46 38 35 36 45 51 59 64 65 67 71 76
190 195 183 171 155 122 122 107 68 72 70 65 59 57 75 88 84 76 65 56 53 60 68 73 70 70 60 61 56 60 61 51 40 35 35 35 40 48 54 59 64 73 75
190 184 178 172 135 133 140 126 89 89 90 78 68 66 79 96 96 89 80 62 54 67 74 75 67 67 65 62 52 49 56 53 47 37 36 34 33 40 47 52 60 68 72
166 167 180 165 139 140 123 103 86 90 90 80 77 76 83 95 103 99 90 71 66 75 77 77 69 68 61 60 51 35 34 37 40 42 43 37 34 33 37 45 51 58 64
168 162 162 147 140 140 123 96 89 84 74 77 84 84 90 94 98 96 85 72 74 73 67 82 66 76 80 70 63 45 30 24 19 33 38 35 36 36 35 37 46 54 59
167 160 155 140 132 129 111 88 74 63 55 62 76 82 90 91 92 91 84 75 80 79 67 70 80 64 72 73 70 50 25 14 22 26 16 26 30 31 38 42 41 45 58
156 153 152 146 144 134 127 127 116 103 72 60 58 83 91 98 101 95 81 75 76 88 90 89 87 76 58 50 67 32 8 14 28 14 8 21 18 15 31 41 45 41 46
174 171 166 166 160 160 161 156 145 138 121 109 47 60 80 106 114 108 95 105 95 94 89 81 88 94 54 45 94 83 16 353 356 4 4 10 352 7 15 20 39 42 47
182 184 182 179 173 168 150 119 91 73 54 43 43 51 37 118 131 118 120 112 109 111 130 135 118 124 138 30 63 129 134 227 308 336 357 6 1 0 347 1 19 25 59
195 187 179 175 169 162 149 142 142 149 168 204 195 200 44 104 149 146 145 136 136 137 155 184 141 141 142 148 35 59 139 158 153 324 331 343 352 351 335 338 340 345 52
185 177 176 168 169 167 161 161 154 155 170 162 120 118 122 353 210 186 183 168 171 178 193 189 153 177 172 167 164 144 98 70 125 159 273 318 336 321 308 307 319 331 299
170 167 165 167 176 174 169 166 167 170 165 149 153 181 213 266 266 255 221 217 211 205 211 209 198 193 193 186 183 180 169 169 181 170 199 259 294 303 309 311 302 301 276
Height
1519 1519 1518 1518 1518 1518 1518 1518 1518 1518 1517 1518 1518 1518 1518 1518 1518 1518 1518 1518 1518 1519 1519 1519 1519 1519 1519 1519 1519 1519 1520 1520 1520 1519 1519 1518 1517 1517 1519 1521 1522 1523 1524
1520 1519 1519 1518 1518 1518 1518 1519 1519 1519 1519 1519 1519 1519 1519 1519 1519 1520 1520 1520 1520 1520 1520 1520 1520 1520 1520 1520 1520 1520 1520 1520 1520 1520 1520 1519 1519 1519 1520 1522 1523 1523 1524
1520 1520 1519 1519 1519 1519 1519 1519 1520 1520 1520 1520 1520 1520 1521 1521 1521 1521 1521 1521 1521 1521 1521 1521 1521 1521 1521 1521 1521 1521 1521 1521 1521 1521 1521 1520 1520 1521 1521 1522 1523 1524 1524
1521 1520 1520 1520 1520 1520 1520 1520 1521 1521 1521 1521 1521 1522 1522 1522 1522 1522 1522 1522 1522 1522 1522 1522 1522 1522 1522 1522 1522 1522 1522 1522 1522 1522 1522 1522 1521 1522 1522 1523 1524 1524 1525
1522 1521 1521 1521 1521 1521 1521 1521 1522 1522 1522 1522 1523 1523 1523 1523 1523 1523 1523 1523 1523 1523 1523 1523 1523 1523 1523 1523 1523 1523 1523 1523 1523 1522 1523 1523 1523 1523 1523 1523 1524 1524 1525
1522 1522 1522 1522 1522 1522 1522 1523 1523 1523 1523 1523 1524 1524 1524 1524 1524 1524 1524 1524 1525 1525 1525 1524 1524 1524 1524 1524 1524 1523 1523 1524 1524 1524 1523 1523 1523 1524 1524 1524 1524 1525 1525
1524 1523 1523 1524 1524 1524 1524 1523 1524 1524 1524 1525 1525 1525 1525 1525 1526 1526 1526 1526 1526 1526 1526 1525 1525 1525 1525 1525 1524 1524 1524 1524 1524 1524 1524 1524 1524 1524 1524 1524 1525 1525 1525
1525 1525 1525 1525 1525 1525 1525 1525 1525 1525 1526 1526 1526 1526 1527 1527 1527 1527 1527 1527 1527 1527 1527 1526 1526 1526 1526 1526 1525 1525 1525 1525 1525 1525 1525 1525 1525 1525 1525 1525 1525 1525 1525
1526 1526 1526 1526 1526 1527 1527 1527 1527 1527 1527 1527 1528 1528 1528 1528 1528 1528 1528 1528 1528 1528 1528 1528 1528 1527 1527 1527 1527 1526 1526 1526 1526 1526 1526 1526 1526 1526 1526 1525 1526 1526 1526
1527 1528 1528 1528 1528 1528 1528 1528 1528 1529 1529 1529 1529 1529 1529 1529 1529 1529 1529 1529 1529 1529 1529 1529 1529 1528 1528 1528 1528 1527 1527 1527 1527 1527 1527 1527 1527 1526 1526 1526 1526 1526 1526
1529 1529 1529 1529 1529 1529 1529 1530 1530 1530 1530 1530 1530 1530 1530 1530 1530 1530 1530 1530 1530 1530 1530 1530 1530 1530 1529 1529 1529 1529 1528 1528 1528 1528 1528 1528 1528 1527 1527 1527 1527 1527 1527
1529 1530 1530 1530 1530 1531 1531 1531 1531 1531 1531 1531 1531 1531 1531 1531 1531 1531 1531 1531 1531 1531 1531 1531 1531 1531 1531 1530 1530 1530 1530 1530 1529 1529 1529 1529 1528 1528 1528 1528 1528 1528 1528
1530 1530 1531 1531 1531 1531 1532 1532 1532 1532 1532 1532 1532 1532 1532 1532 1533 1533 1532 1532 1532 1532 1532 1532 1532 1532 1532 1531 1531 1531 1531 1531 1531 1530 1530 1530 1529 1529 1529 1529 1529 1529 1528
1530 1531 1531 1532 1532 1532 1533 1533 1533 1533 1533 1533 1533 1534 1533 1533 1533 1533 1533 1533 1533 1533 1533 1533 1533 1533 1532 1532 1532 1532 1531 1531 1531 1531 1531 1531 1530 1530 1530 1530 1529 1529 1529
1530 1531 1532 1532 1533 1533 1533 1534 1534 1534 1534 1535 1534 1534 1534 1534 1534 1534 1534 1534 1534 1534 1533 1533 1533 1533 1533 1533 1533 1533 1533 1532 1532 1532 1532 1531 1531 1531 1531 1531 1530 1530 1530
1530 1531 1532 1533 1533 1534 1534 1534 1535 1535 1535 1535 1535 1535 1535 1535 1535 1535 1535 1534 1534 1534 1534 1534 1534 1534 1534 1534 1534 1533 1533 1533 1533 1532 1532 1532 1532 1532 1532 1532 1531 1531 1531
1530 1531 1532 1533 1533 1534 1534 1535 1535 1535 1536 1536 1536 1536 1535 1535 1535 1535 1535 1535 1535 1534 1534 1534 1534 1534 1534 1534 1534 1534 1534 1534 1534 1534 1533 1533 1533 1533 1533 1533 1532 1532 1532
1530 1531 1532 1533 1533 1534 1534 1535 1535 1536 1536 1536 1536 1536 1536 1536 1536 1535 1535 1535 1535 1534 1534 1534 1534 1534 1534 1534 1534 1534 1534 1535 1535 1535 1534 1534 1534 1534 1534 1534 1533 1533 1533
1529 1530 1531 1532 1533 1534 1534 1535 1535 1536 1536 1536 1536 1536 1536 1536 1536 1536 1535 1535 1535 1534 1534 1534 1534 1534 1534 1534 1534 1535 1535 1535 1535 1535 1535 1535 1535 1535 1535 1534 1534 1534 1534
1529 1530 1531 1532 1532 1533 1534 1535 1535 1535 1536 1536 1536 1536 1536 1536 1536 1535 1535 1535 1535 1534 1534 1534 1534 1534 1534 1534 1534 1534 1535 1535 1535 1535 1535 1535 1535 1535 1535 1535 1535 1535 1535
1527 1528 1530 1531 1531 1532 1533 1533 1534 1534 1535 1535 1535 1535 1535 1535 1535 1535 1535 1535 1534 1534 1534 1534 1534 1534 1534 1534 1534 1534 1535 1535 1535 1535 1535 1535 1535 1535 1535 1535 1535 1535 1536
1525 1527 1528 1529 1530 1531 1532 1533 1533 1534 1534 1535 1535 1535 1535 1535 1535 1535 1535 1534 1534 1534 1534 1533 1533 1533 1534 1534 1534 1534 1534 1535 1534 1534 1534 1535 1535 1535 1535 1535 1535 1536 1536
1523 1524 1526 1528 1529 1530 1531 1532 1533 1533 1534 1534 1534 1534 1534 1534 1534 1534 1534 1534 1534 1533 1533 1533 1533 1533 1533 1534 1534 1534 1534 1534 1534 1534 1534 1534 1534 1534 1534 1535 1535 1535 1535
1521 1523 1524 1526 1527 1528 1529 1530 1531 1531 1532 1532 1533 1533 1533 1533 1534 1533 1533 1533 1533 1533 1532 1532 1532 1532 1532 1532 1533 1533 1534 1533 1533 1533 1533 1533 1533 1533 1533 1533 1534 1534 1535
1519 1520 1522 1524 1525 1527 1528 1529 1530 1530 1531 1532 1532 1532 1532 1532 1532 1532 1532 1532 1532 1531 1531 1531 1531 1531 1531 1531 1531 1531 1532 1532 1532 1532 1531 1532 1532 1532 1532 1532 1532 1533 1533
1517 1519 1520 1522 1523 1525 1526 1527 1528 1529 1530 1530 1530 1531 1531 1531 1531 1531 1531 1530 1530 1530 1530 1530 1530 1530 1529 1530 1530 1529 1530 1530 1530 1530 1530 1530 1530 1530 1531 1531 1531 1531 1532